EDW4K LSZH-KTPA

Flight info

Callsign EDW4K
Flight time N/A
Altitude 34000
Route VEBIT T10 TORPA DCT REKLA DCT RLP DCT ROTSI DCT AMODO DCT COHPA UM729 RESMI UN491 LGL UN502 JSY DCT LIZAD DCT ARKIL DCT DINIM DCT 52N020W 52N030W 52N040W 51N050W DCT ALLRY N476B TOPPS DCT KAYCC DCT KYLOH DCT NELIE Q75 TEUFL DCT BAAMF DADES2
Aircraft A359/H-SDE2E3GHIJ3J4J5LM1ORWXY/LB1D1

Departure

Time 2026-05-04 05:43
Airport Zürich Airport (LSZH)

Arrival

Time N/A
Airport Tampa International Airport (KTPA)
Time Latitude Longitude Altitude Speed Heading
2026-05-04 05:31 47.46156 8.55779 1409 ft 0 kts 186°
2026-05-04 05:36 47.46161 8.55780 1409 ft 4 kts 186°
2026-05-04 05:36 47.46188 8.55784 1413 ft 4 kts 186°
2026-05-04 05:36 47.46212 8.55788 1415 ft 4 kts 177°
2026-05-04 05:37 47.46233 8.55777 1408 ft 4 kts 116°
2026-05-04 05:37 47.46239 8.55740 1412 ft 4 kts 95°
2026-05-04 05:37 47.46240 8.55723 1412 ft 1 kts 96°
2026-05-04 05:38 47.46240 8.55722 1412 ft 0 kts 96°
2026-05-04 05:39 47.46240 8.55723 1412 ft 0 kts 96°
2026-05-04 05:39 47.46239 8.55738 1411 ft 3 kts 96°
2026-05-04 05:40 47.46227 8.55896 1413 ft 12 kts 96°
2026-05-04 05:40 47.46189 8.56018 1419 ft 15 kts 133°
2026-05-04 05:40 47.46106 8.56137 1419 ft 19 kts 137°
2026-05-04 05:41 47.46000 8.56280 1424 ft 22 kts 137°
2026-05-04 05:41 47.45884 8.56436 1426 ft 22 kts 138°
2026-05-04 05:41 47.45796 8.56619 1425 ft 23 kts 99°
2026-05-04 05:41 47.45780 8.56854 1428 ft 22 kts 96°
2026-05-04 05:42 47.45732 8.57025 1431 ft 15 kts 153°
2026-05-04 05:42 47.45666 8.56987 1431 ft 10 kts 257°
2026-05-04 05:42 47.45666 8.56948 1430 ft 0 kts 276°
2026-05-04 05:42 47.45685 8.56691 1424 ft 59 kts 276°
2026-05-04 05:43 47.45751 8.55760 1418 ft 121 kts 276°
2026-05-04 05:43 47.45857 8.54249 1455 ft 167 kts 276°
2026-05-04 05:43 47.45944 8.52610 2145 ft 162 kts 274°
2026-05-04 05:45 47.41111 8.39111 4715 ft 270 kts 235°
2026-05-04 05:45 47.40026 8.36831 5266 ft 274 kts 235°
2026-05-04 05:47 47.33462 8.19146 9418 ft 284 kts 239°
2026-05-04 05:47 47.32541 8.16553 10018 ft 286 kts 239°
2026-05-04 05:47 47.31609 8.13941 10417 ft 294 kts 239°
2026-05-04 05:48 47.30639 8.11207 10674 ft 307 kts 239°
2026-05-04 05:48 47.29626 8.08365 10932 ft 320 kts 239°
2026-05-04 05:48 47.28569 8.05406 11161 ft 332 kts 239°
2026-05-04 05:48 47.27568 8.02283 11382 ft 346 kts 247°
2026-05-04 05:49 47.27106 7.98743 11597 ft 361 kts 266°
2026-05-04 05:49 47.27195 7.94984 11851 ft 373 kts 272°
2026-05-04 05:49 47.27511 7.91157 12219 ft 379 kts 275°
2026-05-04 05:49 47.27928 7.87319 12674 ft 381 kts 276°
2026-05-04 05:51 47.30883 7.61267 15473 ft 395 kts 281°
2026-05-04 05:51 47.31639 7.57374 15890 ft 397 kts 283°
2026-05-04 05:52 47.32462 7.53459 16274 ft 400 kts 284°
2026-05-04 05:52 47.33315 7.49549 16649 ft 402 kts 284°
2026-05-04 05:52 47.34181 7.45628 17061 ft 403 kts 284°
2026-05-04 05:52 47.35046 7.41699 17478 ft 404 kts 284°
2026-05-04 05:53 47.35911 7.37743 17859 ft 406 kts 284°
2026-05-04 05:54 47.41606 7.09465 20132 ft 415 kts 279°
2026-05-04 05:55 47.42235 7.05309 20469 ft 416 kts 279°
2026-05-04 05:55 47.42850 7.01121 20764 ft 418 kts 279°
2026-05-04 05:55 47.43460 6.96914 21050 ft 420 kts 279°
2026-05-04 05:55 47.44071 6.92682 21340 ft 422 kts 279°
2026-05-04 05:56 47.44682 6.88444 21633 ft 423 kts 279°
2026-05-04 05:56 47.45296 6.84192 21906 ft 425 kts 279°
2026-05-04 05:56 47.45916 6.79906 22213 ft 427 kts 279°
2026-05-04 05:56 47.46537 6.75605 22520 ft 428 kts 279°
2026-05-04 05:57 47.47159 6.71292 22773 ft 430 kts 279°
2026-05-04 05:57 47.47750 6.66960 23062 ft 431 kts 276°
2026-05-04 05:57 47.48163 6.62573 23292 ft 433 kts 274°
2026-05-04 05:57 47.48521 6.58144 23558 ft 434 kts 273°
2026-05-04 05:58 47.48849 6.53711 23808 ft 436 kts 273°
2026-05-04 05:58 47.49164 6.49265 24051 ft 437 kts 272°
2026-05-04 05:58 47.49474 6.44802 24307 ft 438 kts 272°
2026-05-04 05:58 47.49786 6.40311 24559 ft 439 kts 272°
2026-05-04 05:59 47.50096 6.35832 24800 ft 440 kts 272°
2026-05-04 05:59 47.50410 6.31317 25043 ft 441 kts 272°
2026-05-04 05:59 47.50725 6.26785 25290 ft 443 kts 272°
2026-05-04 05:59 47.51040 6.22242 25542 ft 444 kts 272°
2026-05-04 06:00 47.51354 6.17700 25775 ft 446 kts 272°
2026-05-04 06:00 47.51668 6.13123 26035 ft 447 kts 272°
2026-05-04 06:00 47.51977 6.08612 26324 ft 448 kts 272°
2026-05-04 06:00 47.52288 6.04024 26589 ft 449 kts 272°
2026-05-04 06:01 47.52597 5.99419 26854 ft 450 kts 272°
2026-05-04 06:01 47.52928 5.94807 27101 ft 453 kts 274°
2026-05-04 06:03 47.64962 5.66520 28809 ft 486 kts 309°
2026-05-04 06:03 47.67282 5.62852 29085 ft 488 kts 308°
2026-05-04 06:05 47.83491 5.36618 30865 ft 495 kts 307°
2026-05-04 06:05 47.88115 5.29056 31562 ft 492 kts 307°
2026-05-04 06:05 47.90415 5.25287 31936 ft 490 kts 307°
2026-05-04 06:06 47.92696 5.21551 32342 ft 487 kts 307°
2026-05-04 06:06 47.94973 5.17813 32660 ft 486 kts 306°
2026-05-04 06:06 47.97209 5.14127 32943 ft 485 kts 306°
2026-05-04 06:06 47.99495 5.10352 33220 ft 485 kts 306°
2026-05-04 06:07 48.01758 5.06610 33461 ft 486 kts 306°
2026-05-04 06:07 48.04026 5.02853 33683 ft 486 kts 306°
2026-05-04 06:07 48.06292 4.99098 33980 ft 485 kts 306°
2026-05-04 06:07 48.08547 4.95359 34243 ft 484 kts 306°
2026-05-04 06:08 48.10772 4.91664 34458 ft 484 kts 306°
2026-05-04 06:08 48.13016 4.87936 34713 ft 483 kts 306°
2026-05-04 06:08 48.15259 4.84202 35014 ft 481 kts 306°
2026-05-04 06:08 48.17491 4.80481 35245 ft 480 kts 306°
2026-05-04 06:09 48.19728 4.76743 35438 ft 481 kts 306°
2026-05-04 06:09 48.21955 4.73017 35635 ft 481 kts 306°
2026-05-04 06:11 48.29743 4.41923 36815 ft 456 kts 273°
2026-05-04 06:11 48.30152 4.37192 36976 ft 457 kts 272°
2026-05-04 06:13 48.33084 4.03940 37910 ft 460 kts 273°
2026-05-04 06:14 48.35606 3.74977 37986 ft 474 kts 273°
2026-05-04 06:14 48.36033 3.69989 37966 ft 475 kts 273°
2026-05-04 06:15 48.36867 3.60174 37967 ft 478 kts 273°
2026-05-04 06:15 48.37701 3.50255 37967 ft 479 kts 273°
2026-05-04 06:16 48.38529 3.40308 37971 ft 480 kts 274°
2026-05-04 06:16 48.39350 3.30365 37966 ft 475 kts 274°
2026-05-04 06:17 48.40155 3.20563 37964 ft 470 kts 274°
2026-05-04 06:17 48.40939 3.10822 37967 ft 469 kts 273°
2026-05-04 06:18 48.41724 3.01072 37989 ft 470 kts 275°
2026-05-04 06:20 48.48685 2.62867 37964 ft 473 kts 282°
2026-05-04 06:21 48.53182 2.39011 37966 ft 473 kts 282°
2026-05-04 06:22 48.54966 2.29459 37967 ft 473 kts 282°
2026-05-04 06:25 48.64883 1.61552 37955 ft 475 kts 278°
2026-05-04 06:26 48.66209 1.51769 37957 ft 475 kts 278°
2026-05-04 06:26 48.67520 1.41965 37955 ft 475 kts 278°
2026-05-04 06:27 48.70772 1.17456 37954 ft 474 kts 278°
2026-05-04 06:28 48.72052 1.07665 37960 ft 474 kts 278°
2026-05-04 06:28 48.73325 0.97869 37963 ft 474 kts 278°
2026-05-04 06:29 48.74593 0.88057 37966 ft 474 kts 278°
2026-05-04 06:29 48.75852 0.78320 37955 ft 474 kts 277°
2026-05-04 06:30 48.77108 0.68508 37963 ft 474 kts 277°
2026-05-04 06:30 48.78353 0.58711 37971 ft 474 kts 277°
2026-05-04 06:31 48.79638 0.48910 37966 ft 475 kts 280°
2026-05-04 06:31 48.81388 0.39229 37976 ft 477 kts 283°
2026-05-04 06:33 48.88566 0.00169 37962 ft 480 kts 281°
2026-05-04 06:34 48.90296 -0.09666 37969 ft 484 kts 282°
2026-05-04 06:34 48.92039 -0.19609 37968 ft 487 kts 281°
2026-05-04 06:36 48.98785 -0.59475 37984 ft 486 kts 281°
2026-05-04 06:37 49.00442 -0.69450 37979 ft 486 kts 281°
2026-05-04 06:37 49.02092 -0.79439 37976 ft 486 kts 281°
2026-05-04 06:38 49.03721 -0.89355 37983 ft 486 kts 281°
2026-05-04 06:40 49.09979 -1.27918 37975 ft 489 kts 281°
2026-05-04 06:40 49.11608 -1.37994 37982 ft 489 kts 281°
2026-05-04 06:41 49.13227 -1.48072 37976 ft 488 kts 281°
2026-05-04 06:41 49.14834 -1.58138 37973 ft 488 kts 281°
2026-05-04 06:42 49.16431 -1.68212 37976 ft 488 kts 281°
2026-05-04 06:44 49.22747 -2.08557 37983 ft 488 kts 282°
2026-05-04 06:44 49.24471 -2.18613 37983 ft 488 kts 283°
2026-05-04 06:45 49.26228 -2.28654 37988 ft 489 kts 283°
2026-05-04 06:45 49.27957 -2.38716 37988 ft 489 kts 282°
2026-05-04 06:46 49.29662 -2.48791 37991 ft 489 kts 282°
2026-05-04 06:46 49.31355 -2.58882 37992 ft 489 kts 282°
2026-05-04 06:48 49.38055 -2.99375 37979 ft 490 kts 282°
2026-05-04 06:50 49.44624 -3.40033 37979 ft 493 kts 282°
2026-05-04 06:51 49.46251 -3.50261 37979 ft 493 kts 282°
2026-05-04 06:51 49.47869 -3.60496 37984 ft 493 kts 282°
2026-05-04 06:52 49.49480 -3.70749 37975 ft 494 kts 282°
2026-05-04 06:52 49.51084 -3.81024 37975 ft 494 kts 282°
2026-05-04 06:53 49.52678 -3.91302 37975 ft 494 kts 282°
2026-05-04 06:53 49.54264 -4.01590 37974 ft 494 kts 282°
2026-05-04 06:54 49.55839 -4.11872 37979 ft 493 kts 282°
2026-05-04 06:54 49.57405 -4.22162 37977 ft 493 kts 282°
2026-05-04 06:55 49.59099 -4.32327 37977 ft 494 kts 289°
2026-05-04 06:55 49.61838 -4.42045 37971 ft 495 kts 294°
2026-05-04 06:57 49.73750 -4.80368 37968 ft 495 kts 295°
2026-05-04 06:58 49.76698 -4.89979 37971 ft 495 kts 295°
2026-05-04 06:58 49.79635 -4.99590 37971 ft 495 kts 295°
2026-05-04 06:59 49.82570 -5.09230 37966 ft 495 kts 294°
2026-05-04 06:59 49.85497 -5.18880 37962 ft 495 kts 294°
2026-05-04 07:01 49.97111 -5.57559 37966 ft 495 kts 294°
2026-05-04 07:02 49.99996 -5.67263 37965 ft 495 kts 294°
2026-05-04 07:02 50.02852 -5.76907 37966 ft 495 kts 294°
2026-05-04 07:03 50.05721 -5.86633 37965 ft 494 kts 294°
2026-05-04 07:03 50.08577 -5.96358 37967 ft 494 kts 294°
2026-05-04 07:04 50.11426 -6.06095 37966 ft 495 kts 294°
2026-05-04 07:04 50.14272 -6.15861 37966 ft 495 kts 294°
2026-05-04 07:05 50.17109 -6.25639 37963 ft 495 kts 294°
2026-05-04 07:05 50.19940 -6.35432 37963 ft 495 kts 294°
2026-05-04 07:06 50.24167 -6.50135 37962 ft 495 kts 295°
2026-05-04 07:07 50.26985 -6.59985 37966 ft 496 kts 294°
2026-05-04 07:09 50.38162 -6.99465 37965 ft 497 kts 295°
2026-05-04 07:09 50.40943 -7.09390 37981 ft 498 kts 294°
2026-05-04 07:10 50.43717 -7.19339 37977 ft 498 kts 295°
2026-05-04 07:12 50.54732 -7.59242 37992 ft 499 kts 294°
2026-05-04 07:12 50.57472 -7.69278 37988 ft 500 kts 295°
2026-05-04 07:13 50.60212 -7.79349 37988 ft 500 kts 295°
2026-05-04 07:13 50.62939 -7.89421 37998 ft 499 kts 295°
2026-05-04 07:14 50.66645 -8.10401 38001 ft 501 kts 279°
2026-05-04 07:14 50.67095 -8.15859 38003 ft 502 kts 278°
2026-05-04 07:15 50.67918 -8.26796 38009 ft 502 kts 278°
2026-05-04 07:15 50.68726 -8.37728 38010 ft 502 kts 278°
2026-05-04 07:16 50.69543 -8.48668 38009 ft 502 kts 278°
2026-05-04 07:16 50.70358 -8.59602 38010 ft 502 kts 278°
2026-05-04 07:17 50.71165 -8.70549 38012 ft 502 kts 278°
2026-05-04 07:17 50.71961 -8.81491 38018 ft 502 kts 278°
2026-05-04 07:18 50.72747 -8.92445 38016 ft 502 kts 278°
2026-05-04 07:18 50.73517 -9.03334 38024 ft 503 kts 278°
2026-05-04 07:19 50.74284 -9.14321 38020 ft 503 kts 278°
2026-05-04 07:19 50.75040 -9.25313 38023 ft 504 kts 278°
2026-05-04 07:20 50.75786 -9.36309 38026 ft 504 kts 278°
2026-05-04 07:20 50.76522 -9.47313 38025 ft 504 kts 278°
2026-05-04 07:22 50.79361 -9.91325 38032 ft 503 kts 277°
2026-05-04 07:23 50.80046 -10.02344 38034 ft 504 kts 277°
2026-05-04 07:23 50.80720 -10.13372 38034 ft 504 kts 277°
2026-05-04 07:24 50.81383 -10.24392 38037 ft 504 kts 277°
2026-05-04 07:24 50.82036 -10.35413 38037 ft 504 kts 277°
2026-05-04 07:26 50.84542 -10.79529 38049 ft 504 kts 277°
2026-05-04 07:27 50.85143 -10.90581 38053 ft 505 kts 277°
2026-05-04 07:27 50.85736 -11.01654 38048 ft 505 kts 277°
2026-05-04 07:28 50.86317 -11.12728 38059 ft 505 kts 277°
2026-05-04 07:28 50.86796 -11.21997 38066 ft 505 kts 277°
2026-05-04 07:29 50.87355 -11.33004 38064 ft 505 kts 277°
2026-05-04 07:29 50.87907 -11.44096 38076 ft 505 kts 277°
2026-05-04 07:30 50.88449 -11.55193 38076 ft 506 kts 277°
2026-05-04 07:30 50.88981 -11.66300 38078 ft 506 kts 277°
2026-05-04 07:31 50.89502 -11.77398 38085 ft 506 kts 277°
2026-05-04 07:33 50.91479 -12.21815 38102 ft 505 kts 277°
2026-05-04 07:33 50.91947 -12.32916 38097 ft 505 kts 277°
2026-05-04 07:34 50.92403 -12.44007 38101 ft 504 kts 277°
2026-05-04 07:34 50.92848 -12.55081 38113 ft 503 kts 277°
2026-05-04 07:35 50.93283 -12.66156 38127 ft 503 kts 277°
2026-05-04 07:35 50.93708 -12.77239 38137 ft 503 kts 277°
2026-05-04 07:36 50.94122 -12.88321 38128 ft 503 kts 277°
2026-05-04 07:38 50.95670 -13.32556 38134 ft 503 kts 276°
2026-05-04 07:38 50.96031 -13.43634 38153 ft 503 kts 276°
2026-05-04 07:39 50.96381 -13.54704 38163 ft 503 kts 276°
2026-05-04 07:39 50.96722 -13.65787 38162 ft 503 kts 276°
2026-05-04 07:40 50.97052 -13.76873 38162 ft 503 kts 276°
2026-05-04 07:40 50.97371 -13.87952 38162 ft 503 kts 276°
2026-05-04 07:41 50.97679 -13.99023 38173 ft 502 kts 276°
2026-05-04 07:41 50.97976 -14.10072 38177 ft 501 kts 276°
2026-05-04 07:42 50.98262 -14.21055 38181 ft 501 kts 276°
2026-05-04 07:42 50.98538 -14.32094 38171 ft 501 kts 276°
2026-05-04 07:43 50.98804 -14.43148 38182 ft 500 kts 276°
2026-05-04 07:43 50.99059 -14.54175 38179 ft 500 kts 276°
2026-05-04 07:44 50.99304 -14.65208 38196 ft 500 kts 276°
2026-05-04 07:44 50.99539 -14.76260 38190 ft 500 kts 276°
2026-05-04 07:45 50.99763 -14.87295 38188 ft 500 kts 275°
2026-05-04 07:45 51.00166 -14.98295 38203 ft 496 kts 283°
2026-05-04 07:46 51.01961 -15.08756 38201 ft 490 kts 292°
2026-05-04 07:46 51.04215 -15.18962 38203 ft 489 kts 294°
2026-05-04 07:47 51.06527 -15.29137 38209 ft 489 kts 294°
2026-05-04 07:49 51.15536 -15.69833 38219 ft 487 kts 293°
2026-05-04 07:49 51.17762 -15.80043 38224 ft 487 kts 293°
2026-05-04 07:50 51.19977 -15.90247 38204 ft 487 kts 292°
2026-05-04 07:50 51.22166 -16.00388 38230 ft 486 kts 292°
2026-05-04 07:51 51.24357 -16.10587 38230 ft 486 kts 292°
2026-05-04 07:51 51.26538 -16.20791 38230 ft 486 kts 292°
2026-05-04 07:52 51.28711 -16.31008 38234 ft 486 kts 292°
2026-05-04 07:52 51.30876 -16.41237 38235 ft 486 kts 292°
2026-05-04 07:54 51.39427 -16.82168 38235 ft 484 kts 291°
2026-05-04 07:55 51.41541 -16.92416 38241 ft 484 kts 291°
2026-05-04 07:55 51.43646 -17.02670 38230 ft 484 kts 291°
2026-05-04 07:56 51.45743 -17.12937 38243 ft 485 kts 291°
2026-05-04 07:56 51.47832 -17.23228 38246 ft 485 kts 290°
2026-05-04 07:57 51.49913 -17.33526 38246 ft 485 kts 290°
2026-05-04 07:57 51.51981 -17.43818 38249 ft 485 kts 290°
2026-05-04 07:58 51.54044 -17.54138 38249 ft 485 kts 290°
2026-05-04 07:58 51.56094 -17.64448 38251 ft 485 kts 290°
2026-05-04 07:59 51.58123 -17.74704 38252 ft 485 kts 289°
2026-05-04 07:59 51.60159 -17.85051 38257 ft 485 kts 289°
2026-05-04 08:00 51.62182 -17.95391 38260 ft 485 kts 289°
2026-05-04 08:02 51.70179 -18.36810 38264 ft 484 kts 289°
2026-05-04 08:02 51.72154 -18.47180 38261 ft 484 kts 288°
2026-05-04 08:03 51.74120 -18.57562 38269 ft 484 kts 288°
2026-05-04 08:03 51.76077 -18.67949 38266 ft 484 kts 288°
2026-05-04 08:04 51.78018 -18.78310 38272 ft 481 kts 288°
2026-05-04 08:04 51.79937 -18.88626 38276 ft 477 kts 289°
2026-05-04 08:05 51.81840 -18.98892 38280 ft 477 kts 288°
2026-05-04 08:05 51.83738 -19.09185 38282 ft 478 kts 288°
2026-05-04 08:06 51.85627 -19.19503 38280 ft 478 kts 287°
2026-05-04 08:06 51.87505 -19.29808 38285 ft 477 kts 288°
2026-05-04 08:08 51.94887 -19.70920 38296 ft 475 kts 288°